Regional Weather Roundup
Issued by NWS

Home | Current Version | Previous Version | Graphics & Text | Print | Product List | Glossary On
Versions: 1 2 3 4 5 6 7 8 9 10 11 12 13 14 15 16 17 18 19 20 21 22 23 24 25 26 27 28 29 30 31 32 33 34 35 36 37 38 39 40 41 42 43 44 45 46 47 48 49 50
300
ASUS44 KMEG 170710
RWRTN
TENNESSEE HOURLY STATE WEATHER ROUNDUP
NATIONAL WEATHER SERVICE MEMPHIS TN
200 AM CDT THU AUG 17 2017

TNZ002-004-019-021-049-052-054-088>092-170800-
WEST TENNESSEE

CITY           SKY/WX    TMP DP  RH WIND       PRES   REMARKS
MEMPHIS INTL   CLEAR     77  73  87 S12       29.98F
NWS MEMPHIS      N/A     78 N/A N/A MISG        N/A
JACKSON        CLEAR     77  76  96 S12       29.98F
DYERSBURG      CLEAR     78  76  93 S7        29.95F
COVINGTON      CLEAR     77  75  94 S9        29.96F
UNION CITY     CLEAR     77  75  94 S5        29.93F
PARIS          CLEAR     77  75  94 S9        29.95F
LEXINGTON      CLEAR     75  73  94 S7        29.98F
SELMER         MOCLDY    75  73  94 VRB6G14   30.00F
SAVANNAH       PTCLDY    77  75  94 SW12      30.00S
$$

TNZ008-025-027-028-033-062-065-066-170800-
NORTH MIDDLE TENNESSEE

CITY           SKY/WX    TMP DP  RH WIND       PRES   REMARKS
NASHVILLE      PTCLDY    75  73  93 S7        29.99F
PORTLAND       CLEAR     75  73  94 S7        29.98S
CLARKSVILLE    CLEAR     76  73  91 S5        29.96F
SMYRNA         CLEAR     75  73  93 S5        30.00F
COOKEVILLE     MOCLDY    72  72 100 CALM      30.02F
GALLATIN       CLEAR     75  73  94 CALM      30.00F
CROSSVILLE     CLEAR     70  69  97 CALM      30.07F
$$

TNZ061-075-076-078-094-096-097-170800-
SOUTH MIDDLE TENNESSEE

CITY           SKY/WX    TMP DP  RH WIND       PRES   REMARKS
FAYETTEVILLE   CLEAR     75  75 100 CALM      30.02S
TULLAHOMA      CLEAR     72  70  94 CALM      30.05S
WINCHESTER     CLEAR     75  73  94 CALM      30.03F
MCMINNVILLE    CLEAR     73  73 100 CALM      30.03F
COLUMBIA       CLEAR     75  75 100 CALM      29.98F
SHELBYVILLE    CLEAR     73  73 100 CALM      30.01F
$$

TNZ017-018-042-046-047-170800-
NORTHEAST TENNESSEE

CITY           SKY/WX    TMP DP  RH WIND       PRES   REMARKS
TRI CITIES     FOG       69  69 100 CALM      30.08F VSB 1
ELIZABETHTON   PTCLDY    72  70  94 NE6       30.09F
$$

TNZ012-013-036-069-073-074-170800-
CENTRAL EAST TENNESSEE

CITY           SKY/WX    TMP DP  RH WIND       PRES   REMARKS
KNOXVILLE      CLEAR     75  71  87 CALM      30.03F
OAK RIDGE      CLEAR     75  72  90 CALM      30.05F
DOWNTOWN KNOXV MOCLDY    73  73 100 CALM      30.02F
GATLINBURG     PTCLDY    72  70  94 SE3       30.03F
MORRISTOWN     PTCLDY    72  72 100 CALM      30.05F
$$

TNZ083-085-099-170800-
SOUTHEAST TENNESSEE

CITY           SKY/WX    TMP DP  RH WIND       PRES   REMARKS
CHATTANOOGA    CLEAR     77  74  90 CALM      30.02F
DAYTON         MOSUNNY   73  73 100 CALM      30.01F FOG
$$

SKY/WX REPORTED AS FAIR MEANS FEW OR NO CLOUDS BELOW
12 THOUSAND FEET.





USA.gov is the U.S. government's official web portal to all federal, state and local government web resources and services.